User: anonymous   Login
Location: Bosmont
(49.7318°N, 3.8587°E)
Time: 21:12:46
(UTC+00:00)
Language:

Meteor 1-11 Rocket - Orbit

View from above orbital plane
View from above orbital plane
View from above satellite
View from above satellite

Ground track
Ground track

The orbit data is extracted from the following two-line orbital elements,

1  5918U 72022B   24058.21343655  .00000196  00000-0  11062-3 0  9993
2  5918  81.2370 119.5067 0057303 293.4323  66.0826 14.06056148661689
Epoch (UTC): 27 February 2024 05:07:20
Eccentricity: 0.0057303
inclination: 81.2370°
perigee height: 831 km
apogee height: 914 km
right ascension of ascending node: 119.5067°
argument of perigee: 293.4323°
revolutions per day: 14.06056148
mean anomaly at epoch: 66.0826°
orbit number at epoch: 66168

The dashed part of the orbit path shows where the satellite is in the earth's shadow,  

DLR